SCP
1 2 3 3 3 1 0 0 0 0 0 0 0 0 0 0 0 0 0 0 0 0 0 0 0 0 0 0 0 0 0 0 0 0 0 1 0 0 0 0 0 0 1 0 0 0 0 0 0
1 2 3 3 2 1 0 0 0 0 0 0 0 0 0 0 0 0 0 1 0 0 0 0 0 0 0 0 0 0 0 0 0 0 0 0 0 0 0 0 0 0 1 0 0 0 0 0 0
1 2 2 2 1 0 0 0 0 0 0 0 0 0 0 0 0 1 1 1 1 0 0 0 0 0 0 0 1 0 0 0 0 0 0 0 0 0 0 0 0 0 0 0 0 0 0 0 0
1 2 2 1 1 0 0 0 0 0 0 0 0 0 0 0 0 1 1 1 1 1 1 0 0 0 0 0 0 0 0 0 0 0 0 0 0 0 0 0 0 0 0 0 0 0 0 0 0
2 2 1 1 0 0 0 0 0 0 0 0 0 0 0 0 0 1 1 1 1 1 1 1 0 0 0 0 0 0 0 0 0 0 0 0 0 0 0 0 0 0 0 0 0 0 0 0 0
2 1 1 0 0 0 0 0 0 0 0 0 1 1 1 1 0 1 1 1 1 1 1 1 1 0 0 0 0 0 0 0 0 0 0 0 0 0 0 0 0 0 0 0 0 0 0 0 0
1 1 1 0 0 0 0 0 0 0 0 0 0 1 1 1 1 0 0 1 1 1 1 1 1 1 1 1 1 1 0 0 0 0 0 0 0 0 0 0 0 0 0 0 0 0 0 0 0
1 1 0 0 0 0 0 0 0 0 0 0 0 1 2 1 1 1 0 1 2 2 1 1 1 1 1 1 1 1 1 1 1 1 1 1 0 0 0 0 0 0 0 0 0 0 0 0 0
0 0 0 0 0 0 0 0 0 0 0 0 1 1 2 1 1 1 1 1 2 2 2 1 1 1 1 1 1 1 1 1 1 1 1 1 1 1 0 0 0 0 0 0 0 0 0 0 0
0 0 0 0 0 0 0 0 0 0 1 1 1 2 2 1 1 2 2 2 2 2 2 2 2 1 1 1 1 1 2 2 2 2 2 1 1 1 1 1 1 1 0 1 1 1 1 0 0
0 0 0 0 0 0 0 0 0 0 1 1 2 2 2 1 2 3 3 2 2 2 2 2 2 2 1 1 1 1 2 2 2 2 1 1 1 1 1 1 1 1 1 1 1 1 1 1 1
0 0 0 0 0 0 0 0 0 0 1 1 2 3 2 1 2 4 4 3 2 2 2 2 2 2 1 1 1 1 1 2 2 2 2 2 1 1 2 2 1 1 1 1 1 1 1 1 1
0 0 0 0 0 0 0 0 1 1 1 1 2 2 2 2 3 4 4 4 3 2 2 2 2 2 2 1 1 1 1 2 2 3 3 2 2 1 2 2 2 1 1 1 1 1 1 1 1
0 0 0 0 0 0 0 1 1 1 1 1 2 2 1 2 3 4 5 4 4 3 2 2 2 2 2 2 1 1 1 2 2 2 3 3 3 2 2 2 2 2 2 1 1 1 1 1 1
0 0 0 0 0 0 0 1 2 2 1 1 1 1 2 3 4 5 5 5 4 4 3 3 3 3 2 2 2 1 2 2 2 2 3 3 3 2 2 2 2 2 2 2 2 1 1 1 1
0 0 0 0 0 0 1 1 2 3 2 2 1 2 2 4 5 6 5 5 5 4 4 3 3 3 3 3 3 2 2 2 2 2 2 3 3 2 2 3 3 3 3 2 2 2 1 1 1
0 0 0 0 0 0 0 1 2 3 3 2 2 2 4 6 7 7 7 6 5 4 4 4 4 3 3 4 4 3 3 3 3 3 3 3 2 2 2 3 3 3 3 3 2 2 2 1 1
0 0 0 0 0 0 1 1 2 3 3 3 3 4 6 8 10 9 7 5 5 5 5 5 5 4 3 4 4 4 3 3 4 4 4 3 2 2 2 3 3 4 4 3 3 2 2 2 2
0 0 0 0 0 0 1 1 2 3 3 3 5 7 8 10 10 8 5 4 4 5 5 6 5 4 4 3 3 3 3 3 3 3 4 3 2 2 2 3 3 3 4 4 3 3 2 2 1
0 0 0 0 0 0 1 1 2 2 3 4 6 7 9 10 9 6 4 3 4 5 6 6 6 5 4 4 3 3 2 2 2 3 3 4 3 2 2 3 3 3 3 3 3 3 3 2 2
0 0 0 0 0 0 1 1 2 2 3 4 5 6 7 8 6 5 4 4 4 5 6 6 6 6 5 4 3 3 3 2 3 3 3 4 4 3 2 2 2 2 3 3 3 3 3 2 2
0 0 0 0 0 0 0 1 2 2 2 3 4 5 6 5 5 5 4 4 4 5 6 8 8 7 6 4 3 3 3 3 3 3 3 4 4 3 3 2 2 2 3 3 3 3 3 2 2
0 0 0 0 0 0 0 1 2 2 2 3 4 6 5 5 5 6 5 5 6 6 7 10 11 9 7 5 4 4 3 3 3 3 3 3 3 3 3 3 3 3 3 4 4 3 2 2 2
0 0 0 1 1 0 0 1 2 2 2 3 5 6 5 5 5 6 5 6 7 8 9 11 13 11 8 6 5 5 4 4 3 3 3 2 2 3 4 4 4 3 3 4 4 3 2 2 2
0 0 0 0 0 0 0 1 2 3 3 4 5 5 4 4 5 5 5 6 8 9 10 12 13 11 8 6 6 6 5 4 3 3 2 2 2 3 5 5 5 4 4 4 4 3 2 2 2
0 0 0 0 0 0 1 1 2 3 4 5 6 4 3 3 4 4 5 7 8 10 10 11 11 9 7 7 6 6 6 5 4 3 3 3 2 3 5 7 7 6 5 5 5 4 2 2 2
0 0 0 0 0 0 1 2 2 3 5 6 6 4 3 3 4 5 5 7 8 8 8 7 7 8 7 7 6 6 5 5 4 4 4 3 3 3 5 7 7 7 6 6 5 4 3 2 2
0 0 0 0 0 0 1 2 3 4 6 6 5 3 3 3 4 5 6 6 7 7 6 6 6 7 8 7 5 5 5 4 4 4 4 3 3 3 5 6 7 6 6 6 5 5 3 3 2
0 0 0 0 1 0 1 2 3 5 5 5 4 4 4 4 4 5 6 7 6 6 5 5 6 8 8 7 5 4 4 4 4 4 4 3 3 3 5 6 6 6 6 6 6 5 3 3 2
0 0 0 0 1 0 0 1 3 4 4 4 4 4 4 4 4 5 6 6 6 5 5 5 6 7 8 8 6 5 4 4 4 4 4 4 3 4 5 6 6 5 5 6 5 4 3 3 3
Wind_Speed
8 11 9 6 2 5 15 16 15 16 17 16 16 16 19 18 14 14 12 16 17 16 14 13 12 13 13 13 13 14 14 14 14 15 14 14 14 15 15 14 15 15 15 15 15 15 15 15 14
9 11 8 3 3 9 14 14 15 15 14 15 18 20 20 20 17 16 14 15 16 16 14 13 12 13 13 13 13 13 13 14 14 14 14 13 14 14 14 14 14 14 15 15 15 14 14 14 13
11 14 6 1 8 12 15 13 13 13 13 16 19 18 16 15 16 14 14 16 17 16 14 13 13 13 12 12 12 12 13 13 13 13 13 13 13 13 13 13 13 14 14 14 14 14 13 12 11
9 8 2 6 15 16 14 13 13 13 13 15 15 14 16 15 16 15 15 17 17 16 15 13 12 12 12 12 12 11 11 12 12 12 12 12 12 12 12 12 12 13 13 13 13 12 11 10 8
9 4 4 11 16 15 13 13 13 13 15 18 19 18 16 16 16 15 14 15 16 17 15 14 13 12 12 11 11 11 11 11 11 11 11 11 11 11 11 11 11 11 11 11 11 11 10 8 6
6 2 5 11 15 14 13 13 14 14 16 18 19 18 14 14 13 12 12 13 16 17 16 13 13 12 12 11 11 10 10 10 10 10 10 10 10 10 10 9 10 10 10 10 10 9 8 7 4
5 1 7 14 14 13 12 13 13 12 12 14 17 16 14 14 12 12 11 12 14 16 15 13 12 11 11 10 10 9 9 9 8 8 8 9 9 9 8 8 8 9 9 9 8 8 7 5 3
3 2 8 12 13 14 13 13 13 13 12 11 13 13 15 14 13 12 11 10 11 12 13 12 12 11 10 9 9 9 8 8 7 7 7 7 8 8 7 7 7 8 8 8 7 7 6 4 3
3 3 8 11 12 13 13 13 13 12 11 11 14 18 18 17 14 12 10 10 9 9 9 9 11 10 10 10 10 9 8 7 7 6 7 6 5 6 6 7 8 8 7 7 7 6 6 5 5
4 6 11 11 12 12 12 12 11 12 12 15 17 19 17 15 13 12 11 10 9 8 8 7 8 6 6 7 7 6 6 6 4 4 5 3 2 3 5 8 9 8 7 7 7 7 6 6 5
7 7 9 11 11 10 11 11 10 12 12 16 18 18 16 15 12 11 11 10 9 6 7 8 7 4 4 4 4 2 3 4 4 4 3 2 1 3 4 4 5 5 6 5 6 7 6 6 3
6 7 8 9 9 8 9 10 12 13 15 17 18 17 15 14 12 11 11 10 9 6 7 8 7 4 4 4 2 2 2 2 2 3 2 2 1 1 1 2 3 3 3 3 3 3 3 3 2
5 6 7 8 8 8 9 11 14 15 16 18 18 16 15 13 12 11 11 11 9 6 7 7 7 5 3 2 1 1 2 1 2 2 1 1 1 1 1 1 1 2 2 2 2 2 1 2 2
3 5 7 8 8 9 8 8 12 15 16 17 16 14 13 12 12 12 11 10 9 7 7 7 7 5 3 1 1 1 1 1 1 2 2 1 1 1 0 0 1 1 1 1 1 2 2 2 1
2 3 5 6 6 9 9 7 10 14 16 15 14 13 12 12 11 11 11 10 9 8 7 7 7 7 4 3 2 1 1 1 1 2 2 1 1 1 1 1 1 1 1 1 1 2 2 3 3
5 3 3 5 5 9 7 6 11 13 15 14 13 13 11 10 11 11 11 9 9 8 7 5 6 7 5 3 1 1 0 1 1 1 1 1 1 1 1 2 1 2 2 1 2 2 2 2 1
7 7 5 4 5 7 7 6 12 13 14 13 12 13 12 11 11 10 11 10 9 8 7 5 3 6 5 4 3 2 0 0 0 0 1 1 0 1 1 2 1 2 2 1 2 1 1 1 2
5 5 7 6 6 6 8 7 11 12 13 14 13 13 12 12 11 11 10 11 10 9 7 6 4 4 4 3 2 2 2 1 1 1 1 1 1 1 1 1 1 1 1 1 1 1 2 2 3
7 5 2 3 4 4 7 7 9 11 11 13 14 14 13 13 12 11 11 11 10 8 8 7 5 4 3 2 2 2 2 1 1 1 1 1 1 1 1 2 1 1 1 2 2 2 2 3 2
9 7 3 3 4 4 5 6 6 6 8 11 13 14 14 14 13 12 10 10 10 8 8 7 6 6 4 3 2 2 1 1 1 1 1 1 1 2 2 1 1 2 1 2 3 3 2 3 2
10 8 4 4 4 7 6 5 6 5 6 9 11 13 14 15 15 13 12 10 11 10 9 8 7 6 5 4 2 2 1 1 0 1 1 1 2 2 2 1 2 2 2 2 3 3 3 3 2
9 6 5 6 7 6 6 3 6 8 8 8 11 12 14 15 15 14 13 12 11 10 10 7 7 6 5 4 3 3 2 2 1 1 1 1 1 2 2 2 2 2 2 2 3 2 2 2 2
8 4 6 8 9 9 8 3 3 7 9 9 10 11 12 13 15 14 13 12 11 10 10 9 7 6 5 4 3 3 2 2 1 1 1 1 2 2 2 2 1 1 2 2 2 2 2 2 2
7 6 7 10 10 10 9 4 4 8 10 9 11 10 11 12 13 13 12 11 10 9 9 9 8 6 5 5 4 3 2 1 1 0 0 1 0 1 1 1 1 1 1 2 2 2 2 2 2
10 9 7 8 7 7 5 5 5 9 9 8 9 10 10 10 11 12 11 11 10 9 9 9 8 6 6 5 4 3 2 2 1 1 1 1 0 0 0 1 1 1 1 2 2 2 2 2 2
13 14 9 7 6 4 5 4 4 6 7 8 8 9 11 12 11 11 11 11 10 9 9 9 8 7 6 5 4 2 2 1 1 1 1 1 1 1 1 1 1 1 1 2 2 2 2 1 1
14 14 14 12 11 6 6 5 7 8 9 9 8 9 11 11 12 12 12 12 11 10 9 9 8 7 6 5 4 3 2 1 0 0 0 1 1 1 2 2 2 2 2 3 2 2 2 2 1
15 12 9 10 8 8 7 7 6 10 10 9 9 9 10 11 12 12 12 12 11 10 9 8 8 7 5 5 4 3 3 2 1 1 2 2 2 3 3 3 2 2 2 3 2 2 2 2 2
15 14 10 8 8 8 5 2 4 6 7 10 10 8 9 9 11 12 11 12 11 11 10 9 8 7 6 4 3 3 3 3 2 2 2 2 2 2 2 2 2 2 2 2 2 3 3 3 3
15 16 13 9 8 8 7 1 4 7 7 8 10 9 8 9 9 11 12 11 10 10 10 9 8 7 6 5 5 4 3 3 3 3 2 2 2 2 2 2 3 3 3 3 3 4 4 4 5
Wind_Direction
235 232 228 248 237 77 70 69 71 71 66 60 59 66 62 58 72 89 105 104 104 105 103 94 85 85 84 83 83 84 84 84 83 83 82 82 84 84 85 85 85 86 89 90 92 95 97 98 98
254 243 232 242 59 78 75 74 73 74 79 79 74 75 75 75 84 97 104 105 104 102 99 93 90 87 86 85 85 85 85 86 87 87 86 84 84 85 86 86 86 89 91 93 95 97 98 99 100
254 252 253 124 74 78 82 81 84 86 87 85 77 68 70 86 91 102 112 109 102 100 100 98 94 90 88 86 86 85 86 87 88 88 89 88 87 87 87 88 88 90 93 95 96 98 99 100 101
259 241 196 82 78 79 87 93 95 92 90 90 88 80 74 85 99 111 118 114 113 111 105 102 98 94 92 89 88 87 86 87 88 89 90 90 89 88 90 91 92 93 93 95 99 100 102 104 105
245 259 98 85 83 83 86 91 92 89 84 83 87 93 92 96 107 116 118 119 117 111 110 110 106 101 97 94 92 90 88 88 88 90 91 91 91 91 91 93 95 96 97 98 102 104 104 107 109
261 233 91 89 88 87 88 91 92 92 98 103 105 104 103 113 117 120 122 120 117 115 115 117 115 111 106 101 98 95 94 93 92 94 96 95 94 93 93 95 99 101 102 104 106 109 110 113 113
274 332 101 98 95 87 84 89 94 96 97 103 110 113 123 127 124 120 113 112 115 118 125 132 129 123 117 111 108 106 103 104 104 105 107 108 107 104 103 102 105 107 111 112 115 117 119 122 133
291 1 87 96 98 94 89 86 92 95 90 105 122 119 130 131 132 125 121 115 115 121 126 133 133 137 136 129 127 124 123 125 124 124 128 131 127 124 126 120 118 121 125 128 130 133 136 148 187
341 53 76 89 98 103 102 97 95 98 96 80 86 113 127 134 132 132 126 113 108 108 117 128 128 141 145 139 141 147 147 152 156 157 168 172 164 152 147 131 136 138 143 149 153 155 162 184 212
48 70 79 85 96 105 108 111 120 115 107 99 99 113 128 137 138 137 131 126 118 119 120 112 114 124 129 129 145 162 157 161 188 159 172 185 158 135 133 142 151 158 165 172 179 181 191 215 213
73 78 84 89 97 108 110 117 122 121 121 121 125 132 139 141 143 140 131 126 124 128 119 114 113 122 116 119 144 136 136 151 169 149 161 152 146 150 141 155 161 178 188 198 185 196 210 219 224
94 90 89 92 94 102 104 100 90 89 105 121 132 139 144 149 148 141 133 131 134 132 123 119 114 84 56 65 94 134 136 150 144 136 164 141 156 148 118 127 160 181 190 196 185 200 204 217 230
110 104 102 98 95 85 89 92 93 97 109 122 133 143 152 153 147 138 132 132 133 135 124 107 105 101 82 52 347 80 97 114 119 122 123 122 122 91 80 90 180 207 185 178 186 194 216 228 225
106 120 116 113 114 108 94 98 106 112 120 129 140 150 157 151 147 137 134 134 142 146 133 126 128 125 125 126 3 12 75 100 95 104 100 60 67 69 40 221 262 258 214 189 203 214 191 217 230
167 163 131 133 137 118 113 111 117 126 132 139 147 153 153 151 144 140 141 146 148 146 135 140 148 145 155 165 209 192 190 141 118 113 125 119 100 127 248 265 241 262 250 190 214 258 226 223 221
212 204 187 170 158 140 132 133 135 142 143 146 152 153 153 149 149 149 148 150 148 147 142 163 164 146 155 170 219 272 331 89 96 109 127 119 117 182 250 261 248 261 251 218 208 240 251 254 254
217 195 202 180 168 152 137 142 147 157 150 153 158 158 158 159 159 157 154 154 149 143 147 164 152 142 162 173 193 222 199 65 253 164 102 101 230 242 239 262 258 253 257 257 256 204 253 256 264
246 206 186 192 176 156 139 156 156 163 161 162 164 164 165 165 167 161 159 156 153 148 152 162 159 151 166 171 194 224 215 203 214 175 119 139 258 280 291 272 261 282 298 296 288 295 276 263 258
266 259 200 184 167 177 152 162 174 169 171 167 167 167 170 168 169 164 166 163 158 157 160 160 171 166 174 187 201 210 207 214 206 173 138 131 294 302 287 309 330 293 287 290 297 282 269 255 246
256 258 228 221 189 205 168 171 181 177 186 176 171 169 170 168 168 167 170 167 162 163 164 164 175 172 186 196 204 209 218 218 187 138 131 175 248 276 259 234 269 269 262 271 276 267 259 260 236
241 247 232 249 247 230 210 192 161 195 205 183 176 172 173 172 171 172 177 175 173 171 173 178 176 174 185 185 197 220 184 259 200 159 173 213 231 248 281 271 272 278 258 253 254 258 243 252 270
240 236 244 253 262 258 230 204 171 187 209 193 186 177 176 175 173 174 178 178 179 175 174 173 169 170 177 188 202 205 199 206 200 183 172 199 223 252 254 262 260 281 290 280 266 264 264 256 261
247 237 245 255 262 269 260 235 185 180 206 197 190 180 175 176 173 173 176 175 179 176 171 167 162 167 173 184 196 205 221 224 207 183 168 204 220 244 260 257 276 282 289 301 294 307 287 263 256
239 233 247 253 255 251 253 237 180 187 196 184 177 176 174 173 169 169 171 167 170 171 168 161 159 165 170 181 191 197 214 240 299 41 295 222 221 235 257 285 295 305 301 302 301 302 293 285 281
230 231 234 236 237 248 249 246 174 177 174 162 157 168 173 168 167 163 160 157 161 165 160 155 154 163 169 174 183 190 201 199 226 258 261 282 341 28 4 335 357 323 309 313 315 313 306 304 295
222 234 237 247 246 245 234 235 167 159 136 138 145 159 162 162 162 155 152 151 156 157 153 152 155 162 167 169 170 176 177 186 204 245 302 12 7 20 33 24 6 353 338 334 331 325 309 317 308
224 230 242 253 260 254 224 203 179 166 147 144 152 158 153 154 153 154 154 155 157 156 153 152 150 153 157 161 156 155 139 146 183 98 359 21 16 25 21 26 21 9 5 349 352 355 336 347 354
248 240 244 249 263 264 232 211 192 164 155 153 154 150 148 154 155 152 152 152 151 149 143 141 141 143 143 150 156 146 136 134 106 71 69 46 24 20 16 21 22 16 11 358 359 17 0 24 29
224 237 245 256 259 266 257 237 153 160 160 158 149 144 145 146 144 142 142 142 142 141 141 137 137 138 137 138 133 120 122 120 110 87 71 59 40 23 19 17 22 21 15 8 20 40 24 35 34
229 229 232 238 253 265 270 213 125 155 167 150 137 135 136 130 132 136 136 136 140 143 142 141 142 143 143 137 126 120 117 117 111 98 80 69 60 44 34 26 26 30 32 28 37 42 39 39 39